Weather History for Buffalo, SD

Change the Weather History Date:

Wednesday, January 23, 2013

  Actual Average Record
Temperature  
Mean Temperature 12 °F 21 °F  
Max Temperature 17 °F 31 °F 62 °F (2005)
Min Temperature 7 °F 11 °F -11 °F (2003)
Degree Days  
Heating Degree Days 53 44  
Month to date heating degree days 991 1029  
Since 1 July heating degree days 3993 4289  
Cooling Degree Days 0 0  
Month to date cooling degree days 0 0  
Year to date cooling degree days 0 0  
Moisture  
Dew Point 6 °F    
Average Humidity 80    
Maximum Humidity 92    
Minimum Humidity 67    
Precipitation  
Precipitation 0.00 in 0.01 in 0.02 in (2011)
Month to date precipitation 0.07 0.21  
Year to date precipitation 0.07 0.21  
Sea Level Pressure  
Sea Level Pressure 30.30 in    
Wind  
Wind Speed 9 mph (East)    
Max Wind Speed 25 mph    
Max Gust Speed 29 mph    
T = Trace of Precipitation, MM = Missing Value Source: NWS Daily Summary

Daily Weather History Graph

Daily Weather History Graph

Search for Another Location

Airport:

Trip Planner

Search our weather history database for the weather conditions in past years. The results will help you decide how hot, cold, wet, or windy it might be!

Date:

Astronomy

Jan. 23, 2013 Rise Set
Actual Time 7:24 AM MST 4:48 PM MST
Civil Twilight 6:52 AM MST 5:20 PM MST
Nautical Twilight 6:16 AM MST 5:56 PM MST
Astronomical Twilight 5:40 AM MST 6:31 PM MST
Moon 1:58 PM MST (1/23) 4:40 AM MST (1/23)
Length of Visible Light 10h 28m
Length of Day
9h 23m
Waxing Gibbous, 89% of the Moon is Illuminated
Jan 23
Waxing Gibbous
Jan 26
Full
Feb 3
Last Quarter
Feb 10
New
Feb 17
First Quarter

Hourly Weather History & Observations

Time (MST) Temp. Windchill Dew Point Humidity Pressure Visibility Wind Dir Wind Speed Gust Speed Precip Events Conditions
12:56 AM 15.1 °F 4.2 °F 10.9 °F 84% 30.16 in - NNW 8.1 mph - N/A   Unknown
1:56 AM 16.0 °F 10.4 °F 10.9 °F 81% 30.16 in - WNW 3.5 mph - N/A   Unknown
2:56 AM 14.0 °F 5.1 °F 10.0 °F 84% 30.17 in - NW 5.8 mph - N/A   Unknown
3:56 AM 12.0 °F 1.5 °F 8.1 °F 84% 30.20 in - NNW 6.9 mph - N/A   Unknown
4:56 AM 10.9 °F 4.7 °F 8.1 °F 88% 30.22 in - NNE 3.5 mph - N/A   Unknown
5:56 AM 9.0 °F -0.9 °F 7.0 °F 92% 30.26 in - NE 5.8 mph - N/A   Unknown
6:56 AM 9.0 °F 2.4 °F 6.1 °F 88% 30.29 in - NNE 3.5 mph - N/A   Unknown
7:56 AM 8.1 °F - 5.0 °F 87% 30.32 in - Calm Calm - N/A   Unknown
8:56 AM 10.9 °F 1.4 °F 6.1 °F 81% 30.35 in - North 5.8 mph - N/A   Unknown
9:56 AM 12.0 °F 1.5 °F 3.9 °F 70% 30.37 in - NE 6.9 mph - N/A   Unknown
10:56 AM 10.9 °F 1.4 °F 3.9 °F 73% 30.38 in - East 5.8 mph - N/A   Unknown
11:56 AM 12.0 °F - 3.9 °F 70% 30.40 in - Calm Calm - N/A   Unknown
12:56 PM 12.9 °F 5.2 °F 5.0 °F 71% 30.37 in - ESE 4.6 mph - N/A   Unknown
1:56 PM 12.9 °F 1.6 °F 3.9 °F 67% 30.37 in - East 8.1 mph - N/A   Unknown
2:56 PM 12.9 °F -0.2 °F 3.9 °F 67% 30.36 in - East 10.4 mph - N/A   Unknown
3:56 PM 12.9 °F -0.9 °F 5.0 °F 71% 30.36 in - ESE 11.5 mph - N/A   Unknown
4:56 PM 12.0 °F -1.3 °F 5.0 °F 73% 30.37 in - ESE 10.4 mph - N/A   Unknown
5:56 PM 10.9 °F -4.1 °F 3.9 °F 73% 30.38 in - SE 12.7 mph - N/A   Unknown
6:56 PM 9.0 °F -5.1 °F 3.0 °F 77% 30.36 in - SE 10.4 mph - N/A   Unknown
7:56 PM 9.0 °F -6.6 °F 3.0 °F 77% 30.34 in - SE 12.7 mph - N/A   Unknown
8:56 PM 9.0 °F -9.5 °F 3.9 °F 80% 30.31 in - SE 18.4 mph - N/A   Unknown
9:56 PM 9.0 °F -10.5 °F 3.9 °F 80% 30.29 in - SE 20.7 mph - N/A   Unknown
10:56 PM 9.0 °F -9.5 °F 3.9 °F 80% 30.27 in - SE 18.4 mph - N/A   Unknown
11:56 PM 9.0 °F -10.0 °F 5.0 °F 84% 30.23 in - SE 19.6 mph 26.5 mph N/A   Unknown